Friday Harbor, WA
on Wednesday, November 28, 2012

Wednesday
Previous Day Next Day
Daily Summary
 ActualAverageRecord
Temperature
Mean Temperature °F °F  
Max Temperature 50°F 45°F 52°F (1999)
Min Temperature 39°F 36°F 30°F (2000)
Degree Days
Heating Degree Days 20    
Moisture
Dew Point 40°F   
Average Humidity 83    
Maximum Humidity 93    
Minimum Humidity 74    
Precipitation
Precipitation 0.00 in in in ()
Wind
Wind Speed 5 mph   
Max Wind Speed 17 mph   
Max Gust Speed 23 mph   
Visibility 10 miles   
Events Rain   
Averages and records for this station are not official NWS values.
Key: T is trace of precipitation, MM is missing value
Source: NWS Daily Summary
Seasonal Weather Averages
Time(PST)TemperatureDew PointHumidity Pressure Visibility Wind DirectionWind SpeedGust SpeedPrecipitationEvents Conditions
12:53 AM 42.1°F 35.1°F 76% 29.90 in 10.0 miles WNW 3.5 mph - N/A   Clear
1:53 AM 42.1°F 36.0°F 79% 29.88 in 10.0 miles NNW 4.6 mph - N/A   Clear
2:53 AM 43.0°F 37.0°F 80% 29.87 in 10.0 miles Variable 3.5 mph - N/A   Clear
3:53 AM 43.0°F 37.0°F 80% 29.85 in 10.0 miles Variable 3.5 mph - N/A   Clear
4:53 AM 39.0°F 35.1°F 86% 29.82 in 10.0 miles Calm Calm - N/A   Clear
5:53 AM 39.9°F 37.9°F 93% 29.81 in 10.0 miles Calm Calm - N/A   Partly Cloudy
6:53 AM 39.9°F 37.9°F 93% 29.79 in 10.0 miles Calm Calm - N/A   Mostly Cloudy
7:53 AM 41.0°F 37.9°F 89% 29.76 in 10.0 miles Calm Calm - N/A   Mostly Cloudy
8:53 AM 42.1°F 37.9°F 85% 29.74 in 10.0 miles Calm Calm - N/A   Mostly Cloudy
9:53 AM 43.0°F 39.0°F 86% 29.73 in 10.0 miles Calm Calm - N/A   Overcast
10:53 AM 44.1°F 37.9°F 79% 29.70 in 10.0 miles Calm Calm - N/A   Overcast
11:53 AM 45.0°F 37.9°F 76% 29.64 in 10.0 miles NNW 5.8 mph - 0.00 in   Overcast
12:53 PM 44.1°F 39.9°F 85% 29.64 in 8.0 miles North 5.8 mph - 0.00 in Rain Light Rain
1:53 PM 44.1°F 39.9°F 85% 29.60 in 10.0 miles North 5.8 mph - 0.00 in   Overcast
2:53 PM 44.1°F 39.9°F 85% 29.60 in 10.0 miles North 5.8 mph - N/A   Overcast
3:53 PM 46.9°F 39.0°F 74% 29.60 in 10.0 miles East 5.8 mph - 0.00 in   Overcast
4:53 PM 46.9°F 39.9°F 77% 29.61 in 10.0 miles Variable 6.9 mph - N/A   Overcast
5:53 PM 46.9°F 42.1°F 83% 29.62 in 10.0 miles SE 8.1 mph - N/A   Overcast
6:53 PM 48.0°F 43.0°F 83% 29.61 in 10.0 miles East 9.2 mph - 0.00 in   Overcast
7:53 PM 48.9°F 43.0°F 80% 29.61 in 10.0 miles ESE 12.7 mph 18.4 mph N/A   Clear
8:53 PM 48.9°F 43.0°F 80% 29.63 in 10.0 miles SE 12.7 mph 18.4 mph N/A   Mostly Cloudy
9:00 PM 50.0°F 42.8°F 76% 29.63 in 10.0 miles SSE 13.8 mph 23.0 mph N/A   Mostly Cloudy
9:53 PM 48.9°F 45.0°F 86% 29.65 in 10.0 miles SE 12.7 mph 23.0 mph N/A   Overcast
10:53 PM 48.0°F 45.0°F 89% 29.66 in 10.0 miles SE 10.4 mph - N/A   Mostly Cloudy
11:00 PM 48.2°F 44.6°F 87% 29.65 in 10.0 miles SE 11.5 mph 18.4 mph N/A   Scattered Clouds
11:21 PM 48.2°F 46.4°F 93% 29.66 in 10.0 miles SE 17.3 mph 23.0 mph N/A   Mostly Cloudy
11:53 PM 48.9°F 45.0°F 86% 29.67 in 10.0 miles ESE 12.7 mph 20.7 mph N/A   Mostly Cloudy
Moon Phase
Nov. 28 Dec. 06 Dec. 13 Dec. 20 Dec. 28
Sunrise:07:39 AM (PST) Moon Rise:04:39 PM (PST)
Sunset:04:20 PM (PST) Moon Set:07:42 AM (PST)

Copyright © 2014 The Weather Underground, Inc.